Location: Bathurst
(33.4193°S, 149.5775°E)
Time: 14:51:35
(UTC+11:00)

Envisat - Pass Details

Date: 29 January 2021
Orbit: 764 x 766 km, 98.1° (Epoch: 07 March)

Event Time Altitude Azimuth Distance (km) Brightness Sun altitude
Rises 05:07:02 0° 44° (NE) 3,221 6.4 -14.5°
Reaches altitude 10° 05:09:39 10° 56° (NE) 2,304 5.8 -14.0°
Maximum altitude 05:13:47 26° 111° (ESE) 1,496 5.4 -13.3°
Drops below altitude 10° 05:17:57 10° 165° (SSE) 2,327 6.2 -12.5°
Sets 05:20:36 0° 177° (S) 3,261 6.8 -12.1°
